Skip Page Navigation
NASA JPL Caltech
NASA Logo - Jet Propulsion Laboratory + View the NASA Portal
+ Center for Near-Earth Object Studies
JPL Home Earth Solar System Stars & Galaxies Technology
JPL Solar System Dynamics
BODIES ORBITS EPHEMERIDES TOOLS PHYSICAL DATA DISCOVERY FAQ SITE MAP
IMPORTANT: The SSD Announcement email list is now available. Major changes are coming in the near future, including possible hostname and/or URL changes. To be notified of such changes, subscribe to this email list.

Please visit this page for more details.


JPL Small-Body Database Browser
Search: [ help ]  
183566 (2003 NQ2)
Classification: Main-belt Asteroid          SPK-ID: 2183566
Ephemeris | Orbit Diagram | Orbital Elements | Mission Design | Physical Parameters | Discovery Circumstances | Close-Approach Data ]

[ show orbit diagram ]
Orbital Elements at Epoch 2459000.5 (2020-May-31.0) TDB
Reference: JPL 20 (heliocentric ecliptic J2000)
 Element Value Uncertainty (1-sigma)   Units 
e .2452068934981508 5.1991e-08  
a 3.114063993961924 3.749e-08 au
q 2.350474035848076 1.6749e-07 au
i 20.61715225808015 7.8654e-06 deg
node 225.3115802527057 1.6262e-05 deg
peri 80.04981174269163 2.3413e-05 deg
M 27.80603751968867 2.1227e-05 deg
tp 2458845.466222104586
(2019-Dec-27.96622210)
0.00011695 TDB
period 2007.195739516287
5.50
3.6246e-05
9.924e-08
d
yr
n .1793547051304305 3.2388e-09 deg/d
Q 3.877653952075772 4.6682e-08 au
  Orbit Determination Parameters
   # obs. used (total)      376  
   data-arc span      8041 days (22.02 yr)  
   first obs. used      1997-05-03  
   last obs. used      2019-05-09  
   planetary ephem.      DE431  
   SB-pert. ephem.      SB431-N16  
   condition code      0  
   norm. resid. RMS      .61251  
   source      ORB  
   producer      Otto Matic  
   solution date      2019-May-30 07:51:02  

Additional Information
 Earth MOID = 1.43854 au 
 Jupiter MOID = 1.74434 au 
 T_jup = 3.075 
[ show covariance matrix ]

Ephemeris | Orbit Diagram | Orbital Elements | Mission Design | Physical Parameters | Discovery Circumstances | Close-Approach Data ]

Physical Parameter Table
Parameter Symbol Value Units Sigma Reference Notes
absolute magnitude H 14.4   n/a MPO433201  

183566 (2003 NQ2)          Discovered 2003-Jul-04 by NEAT at Haleakala
Reference: 20080420/Numbers.arcLast Updated: 2008-04-23

[ show close-approach data ]
Alternate Designations
 2003 NQ2 = 1997 JT17 = 2004 VK92 
Ephemeris | Orbit Diagram | Orbital Elements | Mission Design | Physical Parameters | Discovery Circumstances | Close-Approach Data ]
ABOUT SSD CREDITS/AWARDS PRIVACY/COPYRIGHT GLOSSARY LINKS
FirstGov 2020-Jun-04 22:10 UT
(server date/time)  
NASA Home Page
Site Manager:   Ryan S. Park
Webmaster  Alan B. Chamberlin